DELTA 1 DEB, 7177

Orbit data source: Space-Track

DELTA 1 DEB, 7177 is space debris in SSO originally from a launch on Tue, 06 Nov 1973 UTC launched from the Air Force Western Test Range (AFWTR). Debris objects in space refer to the collection of defunct objects orbiting the Earth. Examples of debris include non-operational satellites, rocket bodies, and fragments generated from explosions, collisions, or faulty payload assembly.

Loading next visibility...
Identifier
7177, 1973-086EP
Orbit
SSO
Country
Flag of USUS
Related business
Manufacturer
Unknown
Mission
Spacecraft
Bus & Motor
Unknown
Mass
Unknown
Launch date (UTC)
1973-11-06 (52 years ago)
Launch vehicle
Unknown
Launch site
Air Force Western Test Range (AFWTR)
Object type
Payload
Rocket body
Debris
Shape & HBR
Unknown shape, 0.1 m
Radar Cross Section
Small (<0.1 m²)

Expand to show TLE details & history
Last TLE update: 8 hours ago

TLE from 8 hours ago
0 DELTA 1 DEB
1 07177U 73086EP  26034.53950215  .00000671  00000-0  16325-2 0  9994
2 07177 102.0377  29.1293 0241606 260.6212 224.6907 13.16856816487394
Epoch: 2026-02-03T12:56Z
TLE epoch observation values (Epoch: 2026-02-03T12:56:52.985Z)
Latitude
54.82519°
Longitude
-101.28833°
Altitude
1,337.878 km
Speed
7.131 km/s
True Right ascension
15h 06m 36s
True Declination
54° 40' 31"
Sunlit
Object was in daylight at epoch
Visualization orbit readout
Latitude
Unknown
Longitude
Unknown
Altitude
Unknown
Speed
Unknown
Apparent Right ascension
Unknown
Apparent Declination
Unknown
Sunlit
N/A
Visualization observer readout
Local Sidereal Time
22:52:28
Azimuth
Unknown
Elevation
Unknown
Doppler factor
Unknown
Orbital elements
Apogee altitude
1,377.178 km
Perigee altitude
1,011.272 km
Semi-major axis
7,572.362 km
Eccentricity
0.02416
Inclination
102.0377°
RAAN
29.1293°
Arg. of periapsis
260.6212°
True anomaly
222.78491°
Mean anomaly
224.6907°
Eccentric anomaly
223.73372°
Mean motion
3.29379 °/min
Orbital period
109.3 mins
BSTAR
0.0016325
Loading maneuver chart data...
Computing Atmospheric mass density...
Loading historical data...
Loading historical data...
Loading historical data...
Loading historical data...
Loading historical data...
Loading historical data...
Loading historical data...

Documentation

Showing up to 5 results
|